Estación de Peumo Norte
Ultimos registro cada 15 minutos 50
| N° | Estación | Fecha / Hora | Temperatura | Humedad | Lluvia | Velocidad | Dirección | Radiación | Presion |
| 50 | Peumo Norte | 07-05-2026 12:15 | 16,2 | 72,2 | 0 | 0,5 | 185 | 569,4 | 1010,8 |
| 49 | Peumo Norte | 07-05-2026 12:00 | 15,4 | 76,6 | 0 | 1 | 197 | 546,9 | 1010,8 |
| 48 | Peumo Norte | 07-05-2026 11:45 | 14,9 | 77,4 | 0 | 1 | 204 | 146,9 | 1011,1 |
| 47 | Peumo Norte | 07-05-2026 11:30 | 16,7 | 76,5 | 0 | 0,5 | 181 | 621,9 | 1010,9 |
| 46 | Peumo Norte | 07-05-2026 11:15 | 15,4 | 81,3 | 0 | 0 | 105 | 538,1 | 1011,1 |
| 45 | Peumo Norte | 07-05-2026 11:00 | 15,1 | 86,9 | 0 | 0 | 86 | 453,1 | 1011,1 |
| 44 | Peumo Norte | 07-05-2026 10:45 | 14,6 | 89,4 | 0 | 0,5 | 84 | 425,6 | 1011,3 |
| 43 | Peumo Norte | 07-05-2026 10:30 | 14,1 | 91,7 | 0 | 0 | 86 | 401,9 | 1011,4 |
| 42 | Peumo Norte | 07-05-2026 10:15 | 13,6 | 92,8 | 0 | 0 | 110 | 379,4 | 1011,4 |
| 41 | Peumo Norte | 07-05-2026 10:00 | 12,7 | 94,1 | 0 | 0 | 91 | 353,1 | 1011,7 |
| 40 | Peumo Norte | 07-05-2026 09:45 | 12,5 | 94,8 | 0 | 0 | 44 | 326,9 | 1011,7 |
| 39 | Peumo Norte | 07-05-2026 09:30 | 11,8 | 96,2 | 0 | 0 | 333 | 293,1 | 1011,6 |
| 38 | Peumo Norte | 07-05-2026 09:15 | 10,9 | 96,5 | 0 | 0 | 330 | 268,1 | 1011,9 |
| 37 | Peumo Norte | 07-05-2026 09:00 | 8,9 | 97,1 | 0 | 0 | 330 | 73,1 | 1012 |
| 36 | Peumo Norte | 07-05-2026 08:45 | 8,3 | 96,8 | 0 | 0 | 324 | 44,4 | 1012,2 |
| 35 | Peumo Norte | 07-05-2026 08:30 | 9,6 | 96,7 | 0 | 0 | 314 | 38,1 | 1012 |
| 34 | Peumo Norte | 07-05-2026 08:15 | 7,4 | 97 | 0 | 0 | 348 | 21,9 | 1011,4 |
| 33 | Peumo Norte | 07-05-2026 08:00 | 7,8 | 96,7 | 0 | 0 | 351 | 11,9 | 1011,3 |
| 32 | Peumo Norte | 07-05-2026 07:45 | 7,8 | 96,4 | 0 | 0 | 351 | 5,6 | 1011 |
| 31 | Peumo Norte | 07-05-2026 07:30 | 7,5 | 96,3 | 0 | 0 | 351 | 1,9 | 1011,1 |
| 30 | Peumo Norte | 07-05-2026 07:15 | 8,3 | 96,1 | 0 | 0 | 351 | 0,6 | 1011 |
| 29 | Peumo Norte | 07-05-2026 07:00 | 8,8 | 96,1 | 0 | 0 | 351 | 0,6 | 1010,9 |
| 28 | Peumo Norte | 07-05-2026 06:45 | 9,3 | 95,9 | 0 | 0 | 351 | 0,6 | 1011 |
| 27 | Peumo Norte | 07-05-2026 06:30 | 9,4 | 95,7 | 0 | 0 | 351 | 0,6 | 1010,9 |
| 26 | Peumo Norte | 07-05-2026 06:15 | 9,4 | 95,6 | 0 | 0 | 351 | 0,6 | 1010,6 |
| 25 | Peumo Norte | 07-05-2026 06:00 | 9,6 | 95,4 | 0 | 0 | 351 | 0,6 | 1010,4 |
| 24 | Peumo Norte | 07-05-2026 05:45 | 9,6 | 95,2 | 0 | 0 | 351 | 0,6 | 1010,4 |
| 23 | Peumo Norte | 07-05-2026 05:30 | 9,5 | 95 | 0 | 0 | 351 | 0,6 | 1010,2 |
| 22 | Peumo Norte | 07-05-2026 05:15 | 9,3 | 94,9 | 0 | 0 | 337 | 0,6 | 1010,2 |
| 21 | Peumo Norte | 07-05-2026 05:00 | 8,5 | 94,7 | 0 | 0 | 323 | 0,6 | 1009,8 |
| 20 | Peumo Norte | 07-05-2026 04:45 | 8,2 | 94,2 | 0 | 0 | 323 | 0,6 | 1009,6 |
| 19 | Peumo Norte | 07-05-2026 04:30 | 9,4 | 94,2 | 0 | 0 | 323 | 0,6 | 1009,4 |
| 18 | Peumo Norte | 07-05-2026 04:15 | 9,6 | 94 | 0 | 0 | 323 | 0,6 | 1009,4 |
| 17 | Peumo Norte | 07-05-2026 04:00 | 9,9 | 93,7 | 0 | 0 | 323 | 0,6 | 1009,4 |
| 16 | Peumo Norte | 07-05-2026 03:45 | 10 | 93,8 | 0 | 0 | 323 | 0,6 | 1009,4 |
| 15 | Peumo Norte | 07-05-2026 03:30 | 10,1 | 93,4 | 0 | 0 | 323 | 0,6 | 1009,4 |
| 14 | Peumo Norte | 07-05-2026 03:15 | 10,2 | 93,3 | 0 | 0 | 323 | 0,6 | 1009,5 |
| 13 | Peumo Norte | 07-05-2026 03:00 | 10,4 | 93,1 | 0 | 0 | 323 | 0,6 | 1009,7 |
| 12 | Peumo Norte | 07-05-2026 02:45 | 10,5 | 93,1 | 0 | 0 | 323 | 0,6 | 1009,6 |
| 11 | Peumo Norte | 07-05-2026 02:30 | 10,5 | 93 | 0 | 0 | 319 | 0,6 | 1009,5 |
| 10 | Peumo Norte | 07-05-2026 02:15 | 10,4 | 92,9 | 0 | 0 | 340 | 0,6 | 1009,1 |
| 9 | Peumo Norte | 07-05-2026 02:00 | 10,3 | 92,8 | 0 | 0 | 347 | 0,6 | 1009,3 |
| 8 | Peumo Norte | 07-05-2026 01:45 | 10,4 | 92,6 | 0 | 0 | 313 | 0,6 | 1009 |
| 7 | Peumo Norte | 07-05-2026 01:30 | 10,8 | 92,3 | 0 | 0 | 333 | 0,6 | 1008,7 |
| 6 | Peumo Norte | 07-05-2026 01:15 | 11,1 | 92,3 | 0 | 0 | 336 | 0,6 | 1008,6 |
| 5 | Peumo Norte | 07-05-2026 01:00 | 11,2 | 92,4 | 0 | 0 | 336 | 0,6 | 1008,6 |
| 4 | Peumo Norte | 07-05-2026 00:45 | 11,3 | 92,3 | 0 | 0 | 324 | 0,6 | 1008,9 |
| 3 | Peumo Norte | 07-05-2026 00:30 | 11,3 | 92,3 | 0 | 0 | 321 | 0,6 | 1008,8 |
| 2 | Peumo Norte | 07-05-2026 00:15 | 11,4 | 92,4 | 0 | 0 | 330 | 0,6 | 1008,9 |
| 1 | Peumo Norte | 07-05-2026 00:00 | 11,5 | 92,3 | 0 | 0 | 319 | 0,6 | 1008,6 |